George, South Africa

6:54 AM SAST on April 29, 2017 (GMT +0200)
George

Weather History for FAGG - April, 2015

Change the Weather History Date:

Friday, April 10, 2015

  Actual Average Record
Temperature  
Mean Temperature 74 °F -  
Max Temperature 93 °F 69 °F 93 °F (2015)
Min Temperature 56 °F 52 °F 46 °F (2013)
Cooling Degree Days 10    
Growing Degree Days 24 (Base 50)    
Moisture  
Dew Point 56 °F    
Average Humidity 56    
Maximum Humidity 94    
Minimum Humidity 19    
Precipitation  
Precipitation 0.00 in - - ()
Sea Level Pressure  
Sea Level Pressure 29.93 in    
Wind  
Wind Speed 3 mph ()    
Max Wind Speed 10 mph    
Max Gust Speed -    
Visibility 9.7 miles    
Events      
Averages and records for this station are not official NWS values.
T = Trace of Precipitation, MM = Missing Value Source: Averaged Metar Reports

Daily Weather History Graph

Daily Weather History Graph

Search for Another Location

Airport or City:

Trip Planner

Search our weather history database for the weather conditions in past years. The results will help you decide how hot, cold, wet, or windy it might be!

Date:

Astronomy

Apr. 10, 2015 Rise Set
Actual Time 6:49 AM SAST 6:14 PM SAST
Civil Twilight 6:23 AM SAST 6:39 PM SAST
Nautical Twilight 5:54 AM SAST 7:08 PM SAST
Astronomical Twilight 5:26 AM SAST 7:37 PM SAST
Moon 10:43 PM SAST (4/10) 12:01 PM SAST (4/10)
Length of Visible Light 12h 15m
Length of Day
11h 25m
Waning Gibbous, 68% of the Moon is Illuminated
Apr 10
Waning Gibbous
Apr 12
Last Quarter
Apr 18
New
Apr 26
First Quarter
May 4
Full

Hourly Weather History & Observations

Time (SAST) Temp. Heat Index Dew Point Humidity Pressure Visibility Wind Dir Wind Speed Gust Speed Precip Events Conditions
12:00 AM 59.0 °F - 57.2 °F 94% 29.98 in - WNW 3.5 mph - N/A   Clear
1:00 AM 59.0 °F - 55.4 °F 88% 29.98 in - NNW 3.5 mph - N/A   Clear
2:00 AM 58 °F - 56 °F 89% 29.97 in 25 mi 1.2 mph - -  
2:00 AM 59.0 °F - 55.4 °F 88% 29.98 in - Variable 2.3 mph - N/A   Clear
3:00 AM 60.8 °F - 55.4 °F 82% 29.95 in - Variable 2.3 mph - N/A   Clear
4:00 AM 57.2 °F - 55.4 °F 94% 29.92 in - Variable 2.3 mph - N/A   Clear
5:00 AM 58 °F - 55 °F 87% 29.94 in 12 mi North 3.5 mph - -  
5:00 AM 57.2 °F - 55.4 °F 94% 29.92 in - North 3.5 mph - N/A   Clear
8:00 AM 67 °F - 57 °F 61% 29.93 in 12 mi NW 3.5 mph - -   Scattered Clouds
8:00 AM 68.0 °F - 57.2 °F 68% 29.92 in - NW 3.5 mph - N/A   Clear
9:00 AM 82.4 °F 82.0 °F 57.2 °F 42% 29.92 in - Variable 2.3 mph - N/A   Clear
10:00 AM 86.0 °F 87.3 °F 64.4 °F 48% 29.92 in - Variable 2.3 mph - N/A   Clear
11:00 AM 91 °F - 54 °F 19% 29.93 in 12 mi NW 3.5 mph - -   Scattered Clouds
11:00 AM 91.4 °F 89.1 °F 53.6 °F 28% 29.92 in - NW 3.5 mph - N/A   Clear
12:00 PM 93.2 °F 93.3 °F 60.8 °F 34% 29.89 in - Variable 2.3 mph - N/A   Clear
1:00 PM 89.6 °F 87.7 °F 55.4 °F 31% 29.89 in - SSW 10.4 mph - N/A   Clear
2:00 PM 89 °F - 55 °F 22% 29.89 in 12 mi SSW 6.9 mph - -   Scattered Clouds
2:00 PM 89.6 °F 87.7 °F 55.4 °F 31% 29.89 in - SSW 6.9 mph - N/A   Clear
3:00 PM 84.2 °F 83.0 °F 55.4 °F 37% 29.89 in - SSE 8.1 mph - N/A   Clear
4:00 PM 84.2 °F 82.8 °F 53.6 °F 35% 29.89 in - SSE 3.5 mph - N/A   Clear
5:00 PM 84 °F - 55 °F 26% 29.89 in 12 mi 2.3 mph - -   Scattered Clouds
5:00 PM 84.2 °F 83.0 °F 55.4 °F 37% 29.89 in - Variable 2.3 mph - N/A   Clear
6:00 PM 77.0 °F - 57.2 °F 50% 29.89 in - SE 5.8 mph - N/A   Clear
7:00 PM 75.2 °F - 55.4 °F 50% 29.92 in - Variable 1.2 mph - N/A   Clear
8:00 PM 72 °F - 58 °F 53% 29.96 in 12 mi West 8.1 mph - -   Partly Cloudy
8:00 PM 71.6 °F - 59.0 °F 64% 29.95 in 6.2 mi West 8.1 mph - N/A   Scattered Clouds
9:00 PM 73.4 °F - 59.0 °F 61% 29.95 in 6.2 mi West 10.4 mph - N/A   Overcast
10:00 PM 73.4 °F - 57.2 °F 57% 29.95 in 6.2 mi North 5.8 mph - N/A   Overcast
11:00 PM 73.4 °F - 57.2 °F 57% 29.95 in 6.2 mi NNE 3.5 mph - N/A   Overcast